Regional Weather Roundup
Issued by NWS

Home | Current Version | Previous Version | Graphics & Text | Print | Product List | Glossary Off
Versions: 1 2 3 4 5 6 7 8 9 10 11 12 13 14 15 16 17 18 19 20 21 22 23 24 25 26 27 28 29 30 31 32 33 34 35 36 37 38 39 40 41 42 43 44 45 46 47 48 49 50

918
ASUS43 KMKX 190110
RWRWI

WISCONSIN REGIONAL WEATHER ROUNDUP
NATIONAL WEATHER SERVICE MILWAUKEE/SULLIVAN WI
700 PM CST THU JAN 18 2018

NOTE: "FAIR" INDICATES FEW OR NO CLOUDS BELOW 12,000 FEET WITH NO
SIGNIFICANT WEATHER AND/OR OBSTRUCTIONS TO VISIBILITY.

WIZ001-002-006>008-014>016-023>028-190200-
NORTHWEST WISCONSIN

CITY           SKY/WX    TMP DP  RH WIND       PRES   REMARKS
SUPERIOR ARPT  FAIR      32  26  78 W6        29.74S WCI  26
ASHLAND        FAIR      18  17  96 S5        29.75R WCI  11
HAYWARD        FAIR      26  20  77 S3        29.74S
SIREN          FAIR      24  19  81 CALM      29.76F
CUMBERLAND     FAIR      23  18  80 SW6       29.76S WCI  16
RICE LAKE      FAIR      29  22  75 CALM      29.79R
CHETEK         FAIR      25  19  80 CALM      29.77S
LADYSMITH      FAIR      26  20  77 S5        29.77F WCI  21
EAU CLAIRE     FAIR      30  22  72 SW3       29.79S
MENOMONIE      FAIR      32  24  73 SW6       29.80S WCI  26
NEW RICHMOND   FAIR      29  22  75 S5        29.79S WCI  24
OSCEOLA        FAIR      26  20  80 S5        29.80F WCI  20
$$

WIZ003>005-009-010-017-018-190200-
NORTH CENTRAL WISCONSIN

CITY           SKY/WX    TMP DP  RH WIND       PRES   REMARKS
MANITOWISH WTR MOCLDY    17  17 100 CALM      29.72S
ARBOR VITAE    FAIR      24  23  93 CALM      29.73R
WOODRUFF       FAIR      24  23  93 CALM      29.73R
RHINELANDER    FAIR      25  20  81 SW6       29.74R WCI  18
EAGLE RIVER    FAIR      22  22  99 CALM      29.72S
LAND O LAKES     N/A     21  20  96 CALM      29.73S FOG
PHILLIPS       FAIR      29  21  74 SW3       29.74R
TOMAHAWK       FAIR      27  20  75 CALM      29.75S
MEDFORD        FAIR      29  20  68 SW7       29.76S WCI  22
MERRILL        FAIR      26  20  77 CALM      29.78R
$$

WIZ029-030-035-036-043>047-190200-
CENTRAL WISCONSIN

CITY           SKY/WX    TMP DP  RH WIND       PRES   REMARKS
WAUSAU         FAIR      30  20  66 SW8       29.77R WCI  22
MOSINEE        MOCLDY    27  19  74 SW10      29.79R WCI  17
MARSHFIELD     FAIR      29  21  72 SW8       29.78R WCI  21
STEVENS POINT  FAIR      28  19  71 SW7       29.82R WCI  20
WAUPACA        FAIR      31  20  64 SW6       29.83R WCI  26
WAUTOMA        FAIR      29  20  69 SW6       29.85R WCI  23
WISC RAPIDS    FAIR      29  19  66 SW9       29.83R WCI  20
CAMP DOUGLAS   MOCLDY    32  21  64 SW6       29.84R WCI  26
$$

WIZ011>013-019>022-031-037>040-048>050-190200-
NORTHEAST WISCONSIN

CITY           SKY/WX    TMP DP  RH WIND       PRES   REMARKS
ANTIGO         FAIR      26  19  74 SW5       29.76R WCI  20
SHAWANO        FAIR      32  21  63 CALM      29.80R
OCONTO         FAIR      30  20  67 SW6       29.81R WCI  24
STURGEON BAY   FAIR      26  20  77 S9        29.82R WCI  17
GREEN BAY      FAIR      28  20  71 SW9       29.82R WCI  19
MANITOWOC      FAIR      29  20  69 SW8       29.84  WCI  21
APPLETON       PTCLDY    28  18  64 SW12      29.81R WCI  18
CLINTONVILLE   FAIR      30  19  64 SW7       29.81R WCI  23
OSHKOSH        FAIR      28  19  69 SW13      29.84R WCI  17
$$

WIZ032>034-041-042-053>061-190200-
SOUTHWEST WISCONSIN

CITY           SKY/WX    TMP DP  RH WIND       PRES   REMARKS
LA CROSSE      FAIR      31  21  66 S7        29.88R WCI  24
SPARTA         FAIR      31  23  70 SW5       29.87R WCI  27
VIROQUA        FAIR      28  22  78 SW12      29.87R WCI  18
BOSCOBEL       FAIR      30  19  63 SW6       29.93R WCI  24
PRAIRIE DU CHI FAIR      31  18  58 CALM      29.93R
PLATTEVILLE    FAIR      26  20  78 S9        29.92F WCI  17
$$

WIZ056-057-062-063-064-067-068-190200-
SOUTH CENTRAL WISCONSIN

CITY           SKY/WX    TMP DP  RH WIND       PRES   REMARKS
REEDSBURG      FAIR      30  19  65 SW8       29.88R WCI  22
BARABOO/DELLS  FAIR      30  19  65 SW13G20   29.87R WCI  20
LONE ROCK      FAIR      27  18  69 CALM      29.92R
MINERAL POINT  FAIR      30  23  74 S9        29.91R WCI  22
MADISON        FAIR      29  18  63 S8        29.91S WCI  21
MIDDLETON      FAIR      31  20  64 SW9       29.91R WCI  22
WATERTOWN      NOT AVBL
MONROE         FAIR      28  19  69 SW17      29.91F WCI  16
JANESVILLE     CLEAR     27  19  74 S7        29.95F WCI  19
$$

WIZ051-052-058>065-066-070>072-190200-
SOUTHEAST WISCONSIN

CITY           SKY/WX    TMP DP  RH WIND       PRES   REMARKS
MILWAUKEE      FAIR      30  19  63 SW14G25   29.91F WCI  19
WAUKESHA       CLEAR     25  16  68 SW7       29.92F WCI  17
MILWAUKEE/TIMM CLEAR     28  16  59 SW16G22   29.91F WCI  17
RACINE         FAIR      29  20  69 SW16G29   29.94S WCI  17
BURLINGTON     FAIR      27  19  71 SW12      29.94F WCI  16
KENOSHA        FAIR      29  19  66 SW16G25   29.94F WCI  17
FOND DU LAC    FAIR      29  17  61 SW16G23   29.86S WCI  17
SHEBOYGAN      FAIR      28  19  69 SW18      29.85S WCI  15
WEST BEND      FAIR      28  19  69 SW13G21   29.87F WCI  18
JUNEAU         FAIR      25  18  75 S13       29.90S WCI  13
$$

LSZ147-162-190200-
LAKE SUPERIOR

STATION/POSITION TIME  TEMP    WIND        PRES    WAVE
                       AIR SEA DIR/SP/G            HT/PER
                 (UTC) (F)     (DEG/KT/KT) (MB)    (FT/S)
DEVILS ISLAND    0000   34     270/ 14/ 16 1007.4F
SAXON HARBOR     0030   25     200/  3/  5 1007.1R
$$

LMZ867-665-643>646-190200-
LAKE MICHIGAN

STATION/POSITION TIME  TEMP    WIND        PRES    WAVE
                       AIR SEA DIR/SP/G            HT/PER
                 (UTC) (F)     (DEG/KT/KT) (MB)    (FT/S)
NORTHPORT PIER   0040   31     210/  9/ 28 1009.1R
KEWAUNEE LAKESHO 0042   29     210/  1/  3 1009.5R
SHEBOYGAN LAKESH 0100   30     230/ 13/ 16 1011.7S
PORT WASHINGTON  2340   31     250/  8/ 15 1013.5R
MILWAUKEE LAKESH 0050   30     230/ 16/ 18   N/A
KENOSHA   LAKESH 0000   31     220/ 15/ 19 1014.6
$$

TC  - TEMPERATURE IN CELSIUS
VSB - VISIBILITY IN STATUTE MILES
WCI - WIND CHILL INDEX
HX  - HEAT INDEX





USA.gov is the U.S. government's official web portal to all federal, state and local government web resources and services.